Home   Weather   Münster   Past weeks

Flag for Germany Past Weather in Münster, North Rhine-Westphalia, Germany — Yesterday and Last 2 Weeks

Now
23 °F

Ice fog.


Feels Like: 17 °F
Forecast: 27 / 33 °F
Wind: 5 mph from Northwest

Location: Muenster / Osnabrueck

Current Time: Jan 23, 2017 at 5:43:27 am

Latest Report: Jan 23, 2017 at 4:50 am


Visibility: 1 mi

Pressure: 30.30 "Hg

Humidity: 93%

Dew Point: 21 °F

Location of MünsterLocation

Past Weather in Münster — Graph

°F

Münster Temperature Yesterday

Maximum temperature yesterday: 37 °F (at 2:20 pm)
Minimum temperature yesterday: 19 °F (at 6:50 am)
Average temperature yesterday: 26 °F

High & Low Weather Summary for the Past Weeks

 TemperatureHumidityPressure
High46 °F (Jan 11, 1:50 pm)100% (Jan 8, 4:20 am)30.74 "Hg (Jan 8, 4:20 am)
Low19 °F (Jan 22, 6:50 am)36% (Jan 20, 1:50 pm)28.94 "Hg (Jan 13, 2:20 am)
Average32 °F87%30.17 "Hg
* Reported Jan 8 4:20 am — Jan 23 4:20 am, Münster, Weather by CustomWeather, © 2017

Note: Actual official high and low records may vary slightly from our data, if they occured in-between our weather recording intervals... More about our weather records

Advertising

Münster Weather History for the Previous 24 Hours

Scroll right to see more
 ConditionsComfort  
Time TempWeatherWind HumidityBarometerVisibility
4:20 am
Mon, Jan 23
23 °FIce fog.5 mph100%30.30 "Hg1 mi
3:50 am23 °FIce fog.6 mph100%30.30 "Hg1 mi
3:20 am23 °FIce fog.6 mph100%30.30 "Hg1 mi
2:50 am23 °FIce fog.3 mph100%30.30 "Hg1 mi
2:20 am23 °FIce fog.5 mph100%30.30 "Hg0 mi
1:50 am23 °FIce fog.3 mph100%30.30 "Hg0 mi
12:50 am23 °FIce fog.5 mph93%30.30 "Hg0 mi
12:20 am23 °FIce fog.5 mph93%30.30 "Hg0 mi
11:50 pm
Sun, Jan 22
23 °FIce fog.3 mph93%30.30 "Hg0 mi
11:20 pm21 °FIce fog.5 mph93%30.30 "Hg0 mi
10:50 pm23 °FIce fog.3 mph93%30.30 "Hg1 mi
10:20 pm21 °FIce fog.3 mph93%30.30 "Hg2 mi
9:50 pm23 °FIce fog.No wind100%30.30 "Hg2 mi
9:20 pm21 °FIce fog.1 mph93%30.30 "Hg3 mi
8:50 pm23 °FClear.No wind93%30.30 "Hg4 mi
8:20 pm25 °FClear.1 mph86%30.30 "Hg4 mi
7:50 pm25 °FClear.No wind86%30.30 "Hg5 mi
7:20 pm25 °FClear.No wind86%30.30 "Hg10 mi
6:50 pm27 °FClear.No wind80%30.30 "Hg10 mi
6:20 pm27 °FClear.No wind86%30.30 "Hg10 mi
5:50 pm28 °FClear.1 mph74%30.30 "Hg10 mi
5:20 pm30 °FClear.No wind75%30.30 "Hg10 mi
4:50 pm32 °FSunny.1 mph69%30.27 "Hg10 mi
4:20 pm36 °FSunny.3 mph60%30.30 "Hg10 mi
3:50 pm37 °FSunny.1 mph56%30.30 "Hg10 mi
3:20 pm37 °FSunny.2 mph52%30.27 "Hg10 mi
2:50 pm37 °FSunny.1 mph52%30.30 "Hg10 mi
2:20 pm37 °FSunny.2 mph52%30.30 "Hg10 mi
1:50 pm36 °FPassing clouds.3 mph56%30.30 "HgN/A
1:20 pm36 °FPassing clouds.5 mph60%30.30 "HgN/A
12:50 pm36 °FPassing clouds.3 mph60%30.33 "HgN/A
12:20 pm34 °FSunny.1 mph70%30.33 "Hg10 mi
11:50 am32 °FSunny.1 mph75%30.33 "Hg10 mi
11:20 am32 °FSunny.2 mph75%30.33 "Hg10 mi
10:50 am30 °FSunny.1 mph86%30.36 "Hg10 mi
10:20 am27 °FClear.No wind93%30.36 "Hg5 mi
9:50 am23 °FClear.No wind93%30.36 "Hg4 mi
9:20 am21 °FClear.No wind93%30.33 "Hg4 mi
8:50 am19 °FFog.No wind93%30.33 "Hg4 mi
8:20 am19 °FFog.No wind100%30.33 "Hg4 mi
7:50 am19 °FFog.1 mph100%30.33 "Hg4 mi
7:20 am21 °FFog.No wind93%30.33 "HgN/A
6:50 am19 °FClear.1 mph93%30.33 "Hg10 mi
6:20 am21 °FCold.No wind93%30.33 "HgN/A
5:50 am21 °FFog.No wind93%30.33 "HgN/A
5:20 am21 °FClear.No wind100%30.33 "Hg10 mi
Weather by CustomWeather, © 2017

See weather overviewHow to use our weather pages